Date,TemperatureHighF,TemperatureAvgF,TemperatureLowF,DewpointHighF,DewpointAvgF,DewpointLowF,HumidityHigh,HumidityAvg,HumidityLow,PressureMaxIn,PressureMinIn,WindSpeedMaxMPH,WindSpeedAvgMPH,GustSpeedMaxMPH,PrecipitationSumIn
2013-1-1,38,34,32,37,33,31,98,96,92,30.23,30.06,4,1,8,0.10
2013-1-2,33,30,28,32,28,25,97,92,85,30.30,30.14,5,1,7,0.10
2013-1-3,38,28,24,29,24,22,97,85,60,30.44,30.29,4,0,8,0.01
2013-1-4,35,27,19,26,21,17,94,80,65,30.52,30.43,6,1,10,0.01
2013-1-5,39,29,17,30,23,16,95,80,58,30.56,30.34,4,0,7,0.01
2013-1-6,44,37,32,33,30,26,89,77,59,30.38,30.16,11,1,18,0.01
2013-1-7,45,33,25,27,24,22,89,71,48,30.55,30.38,9,1,11,0.00
2013-1-8,54,35,20,36,28,19,95,78,43,30.54,30.40,8,1,14,0.00
2013-1-9,50,41,31,49,40,30,98,94,84,30.59,30.42,3,0,4,0.08
2013-1-10,58,48,40,49,45,40,99,89,67,30.59,30.29,2,0,6,0.01
2013-1-11,66,58,50,58,52,46,90,80,71,30.28,30.05,16,4,22,0.01
2013-1-12,70,62,55,62,58,55,99,88,71,30.15,30.00,6,1,14,0.00
2013-1-13,67,60,55,58,56,52,98,84,65,30.07,29.95,7,1,16,0.31
2013-1-14,58,40,33,57,39,32,98,95,93,30.39,30.04,7,1,14,0.52
2013-1-15,36,34,32,35,33,31,98,97,95,30.36,30.11,5,1,10,1.02
2013-1-16,40,37,33,40,36,33,98,97,94,30.18,30.04,6,1,11,0.54
2013-1-17,37,32,27,37,31,26,98,95,86,30.41,30.13,7,1,8,0.19
2013-1-18,37,29,23,32,26,22,97,90,76,30.63,30.42,3,0,8,0.17
2013-1-19,47,33,20,34,25,19,96,77,47,30.52,30.21,9,1,15,0.07
2013-1-20,49,38,28,34,25,14,91,63,30,30.23,30.16,10,1,11,0.07
2013-1-21,40,29,21,22,15,2,94,59,31,30.25,30.09,13,2,27,0.00
2013-1-22,24,18,12,4,-1,-5,64,45,31,30.44,30.24,10,2,13,0.00
2013-1-23,37,22,9,26,10,1,82,62,47,30.50,30.17,4,1,15,0.00
2013-1-24,38,23,15,26,9,-2,71,55,34,30.59,30.17,13,3,23,0.00
2013-1-25,32,26,17,31,21,7,97,84,63,30.51,30.17,3,0,7,0.00
2013-1-26,31,28,22,30,26,21,96,92,87,30.52,30.28,4,0,7,0.00
2013-1-27,43,31,18,38,28,16,96,91,82,30.57,30.42,2,0,4,0.11
2013-1-28,57,46,36,49,43,34,97,89,73,30.42,30.26,15,3,23,0.09
2013-1-29,67,55,44,56,50,44,99,85,64,30.27,29.91,13,2,17,0.15
2013-1-30,67,56,39,57,52,36,97,86,70,29.91,29.45,22,4,30,1.82
2013-1-31,39,30,27,37,24,19,92,78,68,30.05,29.55,10,2,23,1.85
2013-2-1,34,17,9,30,10,2,93,72,51,30.50,29.97,9,2,22,0.00
2013-2-2,29,20,8,27,17,6,95,89,79,30.50,30.18,6,1,16,0.00
2013-2-3,34,29,25,30,26,19,96,88,75,30.25,30.03,7,1,17,0.00
2013-2-4,44,31,18,28,22,16,94,73,47,30.24,30.02,6,0,15,0.17
2013-2-5,49,39,34,37,33,28,90,78,60,30.06,29.98,7,1,13,0.02
2013-2-6,52,41,31,34,30,25,89,68,37,30.30,30.07,7,1,10,0.02
2013-2-7,58,42,29,38,32,27,92,72,41,30.29,30.02,7,1,11,0.00
2013-2-8,47,39,32,43,35,26,97,85,74,30.33,29.94,10,2,17,0.12
2013-2-9,47,34,25,26,20,14,81,60,30,30.46,30.33,7,1,11,0.12
2013-2-10,58,41,24,42,26,12,91,64,17,30.37,30.06,15,2,19,0.16
2013-2-11,59,51,41,52,38,21,96,64,34,30.13,29.97,10,2,23,0.01
2013-2-12,52,41,28,29,25,22,83,54,32,30.23,29.97,5,1,13,0.01
2013-2-13,40,37,33,38,33,28,95,87,66,30.02,29.70,3,1,10,0.20
2013-2-14,48,36,25,33,29,24,97,78,52,30.13,30.03,9,1,14,0.20
2013-2-15,47,34,26,38,31,25,97,89,65,30.19,30.08,6,1,10,0.10
2013-2-16,31,27,22,29,20,13,94,77,56,30.15,30.06,8,2,14,0.10
2013-2-17,32,22,16,16,10,5,85,62,33,30.38,30.14,9,2,22,0.00
2013-2-18,53,34,13,29,20,11,92,61,37,30.44,30.04,17,3,18,0.00
2013-2-19,47,39,30,40,27,12,94,65,38,30.16,29.92,15,3,25,0.14
2013-2-20,35,28,22,17,14,12,70,56,42,30.33,30.16,8,2,14,0.14
2013-2-21,43,30,16,30,18,13,91,64,36,30.41,30.20,6,1,11,0.08
2013-2-22,58,46,32,46,40,30,97,81,63,30.24,30.04,14,3,20,0.11
2013-2-23,60,48,41,45,40,33,97,75,45,30.04,29.86,7,1,12,0.11
2013-2-24,48,38,28,33,25,21,89,62,38,30.17,29.93,9,1,13,0.00
2013-2-25,54,37,23,30,25,21,92,66,36,30.20,29.98,5,1,7,0.00
2013-2-26,51,45,40,45,39,28,95,80,60,30.00,29.50,10,2,20,0.20
2013-2-27,41,38,32,37,33,30,93,84,74,29.86,29.66,17,3,19,0.03
2013-2-28,32,31,29,29,28,25,94,88,78,30.04,29.82,11,2,18,0.03
2013-3-1,36,32,30,32,30,29,95,92,84,30.05,29.99,7,1,10,0.02
2013-3-2,31,27,23,29,23,19,91,85,80,30.13,30.00,7,2,11,0.02
2013-3-3,28,25,22,22,20,18,89,81,68,30.19,30.11,6,1,12,0.00
2013-3-4,46,32,16,27,20,14,94,65,28,30.31,30.13,7,1,10,0.01
2013-3-5,47,39,31,44,36,26,97,90,70,30.14,29.62,8,1,31,0.87
2013-3-6,31,28,26,28,26,23,94,91,86,30.34,29.79,12,2,21,0.87
2013-3-7,33,30,28,28,26,24,94,86,78,30.46,30.32,3,0,9,0.03
2013-3-8,41,31,26,29,26,24,93,83,60,30.53,30.43,7,1,10,0.03
2013-3-9,66,42,21,37,26,20,96,62,19,30.46,30.25,7,1,12,0.03
2013-3-10,71,55,40,35,31,28,65,43,24,30.25,30.05,11,3,16,0.00
2013-3-11,61,55,49,50,43,30,95,65,38,30.05,29.77,21,5,26,0.19
2013-3-12,48,38,30,46,33,27,94,83,59,30.12,29.85,5,1,12,0.03
2013-3-13,36,32,27,29,24,16,93,73,55,30.37,30.11,10,2,17,0.01
2013-3-14,44,31,23,19,17,14,78,59,33,30.46,30.32,6,1,12,0.01
2013-3-15,61,40,24,37,27,16,86,62,38,30.34,29.97,12,1,15,0.00
2013-3-16,73,58,40,55,46,34,96,65,40,29.96,29.72,18,2,22,0.05
2013-3-17,57,46,41,48,42,39,96,87,71,30.06,29.93,7,2,13,0.08
2013-3-18,54,45,36,49,43,35,98,94,72,30.00,29.83,8,1,17,1.00
2013-3-19,51,43,34,47,24,3,98,56,18,30.17,29.85,13,2,28,0.01
2013-3-20,48,37,26,29,16,7,91,47,25,30.18,29.91,14,2,19,0.01
2013-3-21,29,24,17,17,12,8,81,63,51,30.15,29.98,11,2,18,0.00
2013-3-22,46,26,11,20,13,9,93,64,24,30.23,30.10,8,1,12,0.00
2013-3-23,51,40,31,32,26,18,74,58,45,30.14,29.93,7,1,9,0.00
2013-3-24,47,41,36,45,38,29,97,89,70,29.91,29.44,4,1,16,0.90
2013-3-25,39,32,29,38,29,25,96,88,80,30.00,29.53,10,3,28,0.02
2013-3-26,35,31,29,30,28,26,92,88,80,30.32,30.00,8,1,19,0.02
2013-3-27,38,32,29,27,24,21,87,73,56,30.40,30.32,8,1,11,0.05
2013-3-28,48,36,27,28,23,21,83,62,39,30.43,30.36,6,1,13,0.01
2013-3-29,55,38,22,32,25,19,95,65,25,30.44,30.29,10,1,12,0.00
2013-3-30,59,43,27,37,32,26,97,69,39,30.34,30.08,11,1,11,0.00
2013-3-31,55,48,42,50,44,35,98,87,64,30.07,29.87,10,1,18,0.30
2013-4-1,55,45,39,44,37,26,98,77,49,30.13,29.92,12,2,18,0.03
2013-4-2,49,39,28,27,18,10,73,45,25,30.30,30.12,13,2,15,0.03
2013-4-3,49,38,25,23,16,11,77,44,25,30.42,30.30,9,2,15,0.00
2013-4-4,47,38,30,37,28,15,97,70,36,30.37,30.07,5,1,11,0.53
2013-4-5,60,47,38,41,34,27,98,67,32,30.14,30.05,9,1,17,0.53
2013-4-6,69,52,31,36,31,27,93,51,23,30.27,30.11,9,2,14,0.00
2013-4-7,71,60,44,45,38,33,72,45,33,30.15,30.05,13,4,27,0.00
2013-4-8,74,59,42,51,44,37,86,60,40,30.13,30.01,19,2,24,0.00
2013-4-9,81,64,47,56,50,46,94,63,32,30.20,30.04,13,2,23,0.00
2013-4-10,84,68,51,59,51,45,92,60,27,30.11,29.89,12,2,22,0.00
2013-4-11,81,68,53,57,51,48,89,58,33,29.91,29.63,14,3,20,0.16
2013-4-12,63,56,48,57,47,34,96,75,40,29.94,29.55,8,2,18,0.14
2013-4-13,66,53,40,40,36,31,87,55,29,30.10,29.95,13,2,18,0.00
2013-4-14,74,56,35,49,37,33,93,57,24,30.14,29.96,11,2,20,0.05
2013-4-15,73,60,51,56,52,49,97,78,48,30.14,29.99,9,1,12,0.03
2013-4-16,82,67,51,60,53,49,92,66,35,30.25,30.10,11,2,16,0.03
2013-4-17,71,63,56,62,58,55,98,87,69,30.32,30.10,6,1,7,0.90
2013-4-18,78,66,52,61,55,52,99,72,45,30.10,29.84,12,4,26,0.01
2013-4-19,69,60,42,61,53,32,94,78,64,30.04,29.65,16,4,22,0.80
2013-4-20,56,45,32,33,28,22,90,56,29,30.39,30.05,11,2,19,0.80
2013-4-21,62,48,30,35,30,25,90,54,32,30.52,30.36,6,1,12,0.00
2013-4-22,67,53,36,42,35,32,90,55,30,30.43,30.21,6,1,10,0.00
2013-4-23,73,57,36,44,36,29,81,50,29,30.27,30.03,8,1,13,0.00
2013-4-24,70,55,41,59,46,37,92,73,51,30.26,29.95,14,3,30,0.08
2013-4-25,62,48,35,38,34,27,95,64,29,30.42,30.26,10,1,12,0.08
2013-4-26,65,50,32,40,34,30,93,59,31,30.51,30.36,6,1,10,0.00
2013-4-27,62,54,48,52,46,38,97,76,53,30.41,30.19,7,1,10,0.15
2013-4-28,58,54,51,53,51,49,97,90,78,30.19,29.99,11,2,19,0.19
2013-4-29,64,56,50,56,53,49,97,88,71,30.07,30.00,6,1,11,0.06
2013-4-30,79,61,45,59,52,45,99,76,41,30.14,30.03,5,1,9,0.01
2013-5-1,74,63,50,56,52,49,98,71,45,30.25,30.15,7,1,15,0.01
2013-5-2,72,62,52,56,52,48,89,69,52,30.27,30.16,9,2,18,0.00
2013-5-3,69,60,50,52,44,33,93,61,29,30.20,30.09,9,2,19,0.00
2013-5-4,64,57,48,49,42,36,69,58,43,30.09,29.99,14,2,24,0.00
2013-5-5,54,51,47,52,47,41,98,86,63,30.05,29.90,5,1,15,0.56
2013-5-6,65,56,49,56,53,48,98,90,72,29.93,29.84,7,0,10,0.18
2013-5-7,57,52,45,55,50,44,98,95,88,30.00,29.91,0,0,0,0.17
2013-5-8,63,56,52,58,54,51,99,95,80,30.08,29.95,1,0,8,0.55
2013-5-9,77,61,48,61,54,48,99,80,46,30.15,30.05,8,1,10,0.55
2013-5-10,74,63,50,62,56,50,99,79,60,30.11,29.93,15,3,26,0.00
2013-5-11,70,61,51,62,56,48,97,83,67,29.97,29.84,7,1,14,0.16
2013-5-12,58,50,40,49,38,31,95,67,39,30.16,29.95,12,1,17,0.08
2013-5-13,59,48,36,38,32,28,94,60,31,30.26,30.16,17,1,19,0.08
2013-5-14,74,54,32,52,42,31,97,67,39,30.30,30.03,10,2,19,0.00
2013-5-15,84,67,54,62,54,50,94,66,34,30.11,29.94,10,1,19,0.00
2013-5-16,79,65,51,60,55,50,96,74,42,30.05,29.97,8,2,15,0.00
2013-5-17,77,65,54,67,60,53,99,86,58,30.12,30.03,3,0,6,0.32
2013-5-18,72,65,58,66,61,57,99,89,74,30.12,30.02,8,1,11,0.01
2013-5-19,79,66,60,67,63,60,99,91,64,30.08,29.99,7,1,12,0.10
2013-5-20,80,67,58,71,64,58,99,90,65,30.14,30.00,5,1,8,0.35
2013-5-21,84,69,59,69,64,59,99,85,54,30.07,29.90,5,1,24,0.06
2013-5-22,85,66,56,68,61,56,99,86,51,29.98,29.84,10,1,21,0.25
2013-5-23,76,65,57,64,60,56,99,86,56,29.98,29.85,7,2,15,0.79
2013-5-24,60,52,43,56,45,39,97,79,46,30.32,29.97,11,3,20,0.14
2013-5-25,64,50,36,48,42,35,98,76,41,30.44,30.29,7,1,10,0.01
2013-5-26,69,58,49,52,49,45,96,75,49,30.34,30.25,6,1,12,0.01
2013-5-27,80,64,47,62,55,46,98,75,49,30.27,30.10,8,1,17,0.00
2013-5-28,82,69,56,64,58,55,98,71,43,30.19,30.06,11,2,20,0.00
2013-5-29,84,70,54,66,60,54,98,74,47,30.21,30.10,7,1,11,0.00
2013-5-30,85,70,56,65,60,55,98,73,38,30.25,30.09,5,1,10,0.00
2013-5-31,86,71,57,66,61,56,96,72,46,30.18,30.04,6,1,11,0.00
2013-6-1,86,74,61,67,62,59,95,71,42,30.08,29.91,13,3,22,0.00
2013-6-2,73,69,64,68,65,62,98,86,68,29.94,29.87,5,1,15,0.49
2013-6-3,74,65,59,66,62,58,99,89,65,30.05,29.90,14,1,14,0.35
2013-6-4,76,64,54,64,58,54,99,83,57,30.13,30.04,5,1,14,0.35
2013-6-5,83,67,53,69,61,52,99,84,53,30.10,29.92,7,1,15,0.41
2013-6-6,80,69,62,70,66,62,99,89,66,29.96,29.76,7,1,11,0.47
2013-6-7,70,66,61,67,64,60,99,94,78,29.89,29.73,6,1,12,0.55
2013-6-8,78,66,57,67,62,57,99,87,56,30.10,29.88,4,0,7,0.57
2013-6-9,84,69,58,70,63,58,99,85,54,30.16,29.99,7,1,8,0.48
2013-6-10,76,67,62,68,64,60,99,91,65,30.02,29.87,9,1,15,0.51
2013-6-11,79,68,61,67,63,61,98,85,62,30.04,29.93,7,1,11,0.51
2013-6-12,90,74,60,75,68,60,99,82,56,30.02,29.86,7,1,12,0.00
2013-6-13,80,72,62,73,67,58,97,86,76,29.89,29.66,11,2,19,0.15
2013-6-14,74,64,55,61,57,54,99,80,57,30.10,29.88,10,2,14,0.01
2013-6-15,81,65,52,64,57,52,99,80,46,30.18,30.05,4,1,11,0.01
2013-6-16,81,69,58,70,64,57,99,87,63,30.12,30.01,8,1,13,0.06
2013-6-17,81,70,61,72,66,58,99,89,68,30.05,29.91,6,1,12,0.47
2013-6-18,72,64,60,66,62,60,99,95,76,30.00,29.88,6,1,9,1.20
2013-6-19,78,66,58,68,62,58,99,87,62,30.14,29.98,7,1,11,1.20
2013-6-20,81,68,57,70,63,57,99,85,61,30.23,30.14,5,1,6,0.01
2013-6-21,83,68,60,71,65,60,99,89,62,30.26,30.18,5,1,9,0.01
2013-6-22,84,70,59,69,64,59,100,82,46,30.26,30.11,5,1,9,0.01
2013-6-23,87,71,57,70,64,57,99,80,51,30.23,30.10,5,1,8,0.01
2013-6-24,80,70,61,71,66,61,99,89,69,30.21,30.09,4,1,13,0.36
2013-6-25,82,72,65,72,69,65,100,91,71,30.16,30.01,6,1,9,0.01
2013-6-26,83,71,63,74,68,63,100,92,65,30.03,29.88,5,0,11,0.06
2013-6-27,80,70,64,73,68,63,99,94,77,29.89,29.77,12,1,17,0.38
2013-6-28,81,72,64,72,67,63,100,85,63,29.80,29.62,9,1,13,0.01
2013-6-29,81,70,58,67,63,58,100,81,52,29.71,29.63,7,1,20,0.00
2013-6-30,84,71,59,68,63,58,99,79,42,29.82,29.70,7,1,10,0.10
2013-7-1,81,70,64,71,67,63,99,88,65,29.94,29.80,6,1,9,0.16
2013-7-2,84,70,62,72,66,62,100,88,57,30.09,29.93,7,1,10,0.04
2013-7-3,80,70,64,70,67,64,100,92,70,30.18,30.08,8,1,10,0.18
2013-7-4,81,69,63,73,67,63,100,92,75,30.22,30.12,3,0,9,0.11
2013-7-5,82,72,65,71,68,65,99,87,67,30.19,30.13,12,1,13,0.11
2013-7-6,86,72,66,73,68,65,99,87,58,30.18,30.06,9,2,17,0.42
2013-7-7,77,68,64,71,67,64,100,96,77,30.17,30.09,3,0,6,0.65
2013-7-8,84,70,62,72,66,62,100,90,56,30.22,30.12,6,1,9,0.01
2013-7-9,87,75,65,75,70,65,100,86,56,30.17,30.05,5,1,9,0.01
2013-7-10,84,74,69,76,71,69,100,93,73,30.08,29.92,6,1,11,0.26
2013-7-11,82,71,67,71,68,63,100,90,68,29.98,29.90,5,1,11,0.26
2013-7-12,77,69,63,67,65,61,96,87,68,30.03,29.93,10,2,11,0.00
2013-7-13,83,70,57,68,63,57,100,82,57,30.14,30.02,9,1,12,0.00
2013-7-14,84,74,65,73,68,64,99,84,64,30.27,30.12,7,1,21,0.13
2013-7-15,88,73,62,72,67,62,100,83,56,30.34,30.25,4,1,9,0.13
2013-7-16,88,75,63,73,69,63,100,83,55,30.36,30.26,4,0,9,0.00
2013-7-17,85,74,66,77,71,66,100,90,69,30.33,30.19,6,1,11,0.22
2013-7-18,87,74,66,78,71,66,100,91,68,30.24,30.07,5,1,8,0.01
2013-7-19,87,72,66,76,70,66,100,93,66,30.11,29.99,4,1,13,0.28
2013-7-20,87,74,66,76,70,66,100,90,60,30.03,29.90,5,1,10,0.01
2013-7-21,81,72,64,74,69,64,100,93,76,30.00,29.91,6,0,10,0.03
2013-7-22,82,72,66,72,69,66,100,90,69,29.97,29.81,13,2,17,0.03
2013-7-23,84,73,68,72,69,67,98,87,60,29.88,29.79,5,1,9,0.17
2013-7-24,79,71,65,72,68,63,100,89,68,29.93,29.78,9,1,10,0.17
2013-7-25,75,66,58,63,61,57,100,84,58,30.10,29.93,6,1,10,0.00
2013-7-26,83,67,54,71,62,54,99,86,55,30.13,30.01,4,1,9,0.01
2013-7-27,81,70,64,69,66,63,100,86,59,30.03,29.88,8,0,9,0.09
2013-7-28,78,68,59,67,62,56,100,83,56,30.10,29.91,6,1,11,0.10
2013-7-29,76,61,50,60,55,50,100,83,51,30.26,30.09,5,1,8,0.00
2013-7-30,78,63,52,66,58,52,99,87,54,30.29,30.19,4,0,7,0.01
2013-7-31,70,65,62,67,64,61,100,96,90,30.21,30.01,3,0,6,0.20
2013-8-1,78,70,64,70,67,64,100,90,74,30.01,29.95,6,0,7,0.04
2013-8-2,80,68,61,68,63,60,100,86,54,30.08,29.99,4,0,9,0.05
2013-8-3,83,71,60,70,66,60,100,85,58,30.05,29.97,5,1,13,0.38
2013-8-4,80,70,63,68,65,61,100,84,53,30.09,30.00,5,1,10,0.38
2013-8-5,80,66,56,67,62,56,100,85,60,30.12,30.00,6,1,9,0.00
2013-8-6,81,70,61,72,66,60,99,88,61,30.04,29.98,5,0,7,0.00
2013-8-7,79,71,65,74,69,65,100,94,80,30.03,29.97,6,1,12,0.28
2013-8-8,79,71,66,74,70,66,100,95,80,30.04,29.97,8,1,14,0.08
2013-8-9,86,73,65,76,70,65,100,92,66,30.07,29.96,7,1,11,0.23
2013-8-10,79,71,66,75,70,67,100,96,82,30.11,30.06,3,0,6,0.93
2013-8-11,84,73,68,75,71,68,100,93,70,30.15,30.04,5,1,9,0.08
2013-8-12,80,71,66,75,70,66,100,96,76,30.10,29.98,10,1,19,0.21
2013-8-13,76,69,65,72,67,64,100,95,79,29.98,29.88,9,1,10,0.50
2013-8-14,69,61,52,63,56,51,97,82,60,30.16,29.97,11,2,12,0.50
2013-8-15,76,61,50,66,57,49,100,89,66,30.18,30.08,3,0,9,0.01
2013-8-16,78,66,55,66,61,55,100,85,55,30.16,30.08,4,1,7,0.01
2013-8-17,72,64,58,65,61,58,100,90,70,30.20,30.14,4,0,6,0.01
2013-8-18,74,67,62,71,66,62,100,95,82,30.21,30.12,4,0,6,0.09
2013-8-19,76,68,64,71,67,65,100,96,80,30.17,30.09,7,0,7,0.16
2013-8-20,81,70,63,73,67,63,100,92,71,30.20,30.11,8,1,11,0.60
2013-8-21,81,68,60,74,66,60,100,95,72,30.24,30.12,5,0,17,0.06
2013-8-22,82,70,59,73,66,59,100,90,67,30.20,30.06,3,0,8,0.00
2013-8-23,79,69,63,72,66,63,100,92,69,30.13,30.03,7,1,10,0.20
2013-8-24,81,68,59,66,62,56,100,83,43,30.31,30.14,8,1,10,0.01
2013-8-25,80,64,52,64,57,52,100,82,41,30.42,30.30,4,0,8,0.01
2013-8-26,82,66,52,70,62,52,100,89,67,30.35,30.16,7,1,8,0.00
2013-8-27,82,70,60,73,68,61,100,92,73,30.18,30.04,5,0,8,0.00
2013-8-28,84,76,67,74,71,67,100,86,64,30.06,29.93,10,1,10,0.03
2013-8-29,82,75,68,75,71,68,99,88,67,30.01,29.94,10,1,11,0.00
2013-8-30,87,73,66,73,68,66,100,86,54,30.02,29.91,6,1,13,0.01
2013-8-31,82,70,63,76,68,63,100,94,73,29.95,29.86,9,0,17,0.05
2013-9-1,78,70,66,74,69,66,100,96,81,29.92,29.82,3,0,6,0.23
2013-9-2,85,72,65,75,69,65,100,91,68,29.94,29.82,5,1,8,0.19
2013-9-3,78,68,59,70,64,59,100,88,62,30.06,29.86,8,1,12,0.04
2013-9-4,78,63,56,65,59,56,100,89,52,30.19,30.06,6,1,9,0.01
2013-9-5,78,64,54,65,59,54,100,87,59,30.23,30.16,7,1,9,0.01
2013-9-6,78,65,55,68,59,55,100,85,51,30.24,30.12,6,1,8,0.01
2013-9-7,81,65,53,67,60,53,100,86,54,30.16,30.03,6,0,9,0.00
2013-9-8,81,68,59,72,65,59,100,90,66,30.05,29.98,4,0,7,0.01
2013-9-9,86,70,62,73,67,62,100,91,55,30.14,30.05,6,0,10,0.01
2013-9-10,87,73,62,74,68,62,100,87,60,30.24,30.13,4,0,9,0.00
2013-9-11,83,71,66,73,69,66,100,94,72,30.23,30.11,2,0,8,0.03
2013-9-12,84,71,63,73,68,63,100,90,61,30.11,29.89,7,1,10,0.11
2013-9-13,69,63,54,64,57,48,100,81,59,30.05,29.88,9,2,14,0.00
2013-9-14,67,54,43,53,49,43,99,83,56,30.18,30.04,8,1,9,0.00
2013-9-15,77,59,43,62,54,43,100,86,51,30.26,30.14,4,0,8,0.01
2013-9-16,71,60,52,63,57,52,100,92,69,30.29,30.16,7,1,9,0.00
2013-9-17,77,61,51,64,56,51,99,86,59,30.32,30.20,6,1,10,0.01
2013-9-18,62,57,52,60,57,51,100,97,86,30.27,30.19,0,0,2,0.33
2013-9-19,77,64,59,71,63,59,100,97,78,30.21,30.09,3,0,6,0.34
2013-9-20,81,69,61,71,65,61,100,90,62,30.11,29.90,5,1,8,0.01
2013-9-21,65,62,57,65,62,57,100,98,91,29.89,29.74,2,0,9,0.60
2013-9-22,66,56,48,57,53,48,100,89,65,30.03,29.85,7,1,10,0.01
2013-9-23,70,55,46,60,52,45,99,90,68,30.13,30.02,6,1,9,0.01
2013-9-24,76,58,48,62,55,48,99,90,57,30.13,29.95,4,0,5,0.01
2013-9-25,70,60,56,66,60,55,100,97,83,29.96,29.88,2,0,4,0.53
2013-9-26,73,63,55,61,59,54,100,88,60,30.10,29.93,5,1,8,0.01
2013-9-27,74,59,51,62,55,50,99,87,51,30.21,30.10,4,0,7,0.01
2013-9-28,74,57,46,62,54,46,99,90,58,30.28,30.16,5,0,7,0.00
2013-9-29,70,59,51,62,56,51,100,92,69,30.19,30.06,4,0,7,0.01
2013-9-30,72,61,56,64,59,56,100,93,71,30.12,30.03,3,0,5,0.00
2013-10-1,76,62,53,62,57,53,100,86,58,30.20,30.09,6,1,12,0.01
2013-10-2,79,62,52,66,59,52,100,89,59,30.23,30.11,4,0,7,0.01
2013-10-3,80,64,56,67,61,56,100,90,59,30.18,30.08,4,0,8,0.00
2013-10-4,81,66,56,68,62,56,100,89,55,30.21,30.11,5,0,8,0.01
2013-10-5,83,67,57,68,62,57,100,86,54,30.18,30.03,4,1,10,0.01
2013-10-6,81,68,56,67,61,56,100,80,52,30.03,29.81,9,2,16,0.01
2013-10-7,68,56,47,62,51,45,98,84,54,30.16,29.82,6,1,14,0.31
2013-10-8,66,51,38,52,46,37,99,84,58,30.27,30.16,9,1,12,0.01
2013-10-9,72,53,40,54,47,39,99,83,47,30.30,30.18,4,1,7,0.00
2013-10-10,69,53,43,55,47,43,99,83,50,30.22,30.12,5,0,7,0.01
2013-10-11,73,58,42,57,48,42,99,76,35,30.14,30.04,5,1,12,0.00
2013-10-12,67,61,55,61,58,55,98,90,79,30.16,30.04,5,0,7,0.00
2013-10-13,70,62,56,63,59,56,99,92,75,30.26,30.16,4,1,7,0.00
2013-10-14,74,64,58,62,61,57,99,89,65,30.29,30.15,6,1,10,0.01
2013-10-15,73,60,51,62,57,51,100,89,61,30.20,30.04,3,0,5,0.01
2013-10-16,66,60,56,60,58,56,99,92,78,30.05,29.98,7,1,12,0.01
2013-10-17,67,58,47,63,57,46,99,95,86,30.03,29.82,6,1,14,0.16
2013-10-18,60,48,42,49,45,42,99,90,61,30.14,30.03,3,0,8,0.00
2013-10-19,62,48,40,52,45,40,99,91,61,30.09,29.91,6,1,13,0.01
2013-10-20,60,43,32,42,36,31,98,80,39,30.19,30.09,5,0,8,0.01
2013-10-21,67,47,30,47,39,30,99,78,41,30.21,30.04,8,1,15,0.00
2013-10-22,48,44,39,47,44,39,98,97,93,30.06,29.91,2,0,6,0.06
2013-10-23,46,41,34,45,39,33,99,95,82,30.14,29.82,7,1,18,0.12
2013-10-24,43,36,31,37,34,30,98,92,76,30.33,30.14,4,0,10,0.09
2013-10-25,40,33,25,34,30,25,97,89,71,30.53,30.33,3,1,8,0.00
2013-10-26,52,37,20,36,28,19,97,73,41,30.46,30.16,9,1,19,0.01
2013-10-27,64,50,38,44,39,34,91,69,45,30.20,30.09,9,1,15,0.00
2013-10-28,57,50,42,55,49,40,99,95,90,30.32,30.17,1,0,3,0.11
2013-10-29,64,56,52,58,53,51,99,91,68,30.38,30.26,2,0,6,0.09
2013-10-30,68,58,52,62,56,51,99,93,79,30.28,30.17,10,1,10,0.40
2013-10-31,68,60,53,58,55,53,100,85,65,30.16,29.64,11,2,25,0.01
2013-11-1,69,61,48,60,52,43,98,74,45,29.80,29.63,10,2,21,0.50
2013-11-2,57,48,41,45,40,35,97,75,51,30.11,29.78,9,1,14,0.00
2013-11-3,50,43,33,39,36,32,95,78,57,30.44,30.11,4,0,6,0.00
2013-11-4,59,42,27,41,33,27,98,75,42,30.55,30.43,4,0,7,0.00
2013-11-5,60,46,36,39,34,30,91,67,39,30.55,30.42,3,0,5,0.00
2013-11-6,71,54,34,54,44,31,93,73,53,30.44,30.10,14,2,19,0.00
2013-11-7,58,46,31,54,41,28,97,83,62,30.30,30.02,8,1,13,0.14
2013-11-8,48,36,27,32,27,23,92,72,40,30.48,30.31,6,1,10,0.00
2013-11-9,57,39,23,35,28,22,96,69,33,30.41,30.27,11,1,17,0.00
2013-11-10,58,47,32,40,30,23,76,55,30,30.39,30.27,8,1,16,0.00
2013-11-11,66,43,25,32,24,15,93,55,16,30.41,30.21,3,0,6,0.00
2013-11-12,50,33,24,38,26,19,93,77,41,30.65,30.17,13,2,17,0.01
2013-11-13,37,26,18,23,20,16,93,79,54,30.76,30.59,5,1,9,0.01
2013-11-14,55,33,16,27,20,15,95,65,25,30.60,30.39,8,1,13,0.01
2013-11-15,55,40,24,43,31,19,97,75,43,30.40,30.26,5,0,7,0.09
2013-11-16,66,52,42,55,48,41,99,87,61,30.29,30.14,8,1,15,0.00
2013-11-17,67,59,51,61,54,48,96,86,64,30.14,29.81,10,2,18,0.18
2013-11-18,59,52,42,58,40,28,96,66,42,30.17,29.87,10,1,13,0.07
2013-11-19,43,37,31,29,27,26,84,69,54,30.37,30.17,10,2,12,0.00
2013-11-20,55,39,25,31,27,23,95,66,37,30.45,30.33,6,1,9,0.00
2013-11-21,67,49,29,51,40,25,87,72,52,30.49,30.33,10,1,14,0.00
2013-11-22,60,55,48,56,52,47,98,91,82,30.34,30.17,7,0,16,0.38
2013-11-23,47,37,27,46,32,16,96,81,57,30.45,30.25,9,2,18,0.03
2013-11-24,27,21,16,19,9,4,80,61,41,30.69,30.45,12,2,17,0.00
2013-11-25,42,28,15,30,17,10,95,67,33,30.65,30.34,4,0,7,0.00
2013-11-26,39,34,31,39,33,30,98,97,95,30.32,29.84,5,0,8,1.67
2013-11-27,32,26,20,31,23,16,96,89,76,30.38,29.88,10,2,16,0.00
2013-11-28,38,23,11,25,18,9,94,81,55,30.61,30.39,4,0,7,0.05
2013-11-29,42,28,14,28,22,13,96,81,55,30.73,30.61,3,0,5,0.05
2013-11-30,53,32,18,34,25,17,96,77,40,30.64,30.39,6,0,10,0.01
2013-12-1,52,37,22,35,30,21,96,77,51,30.39,30.10,5,0,7,0.00
2013-12-2,51,43,38,41,38,34,91,81,66,30.09,29.86,4,0,4,0.00
2013-12-3,57,47,40,48,43,39,97,87,70,29.96,29.89,3,0,7,0.00
2013-12-4,66,53,37,55,47,37,99,82,64,30.05,29.93,10,2,19,0.00
2013-12-5,69,61,51,61,56,50,98,85,73,30.03,29.91,12,2,25,0.36
2013-12-6,50,38,33,49,37,32,97,96,94,30.29,29.99,10,2,11,2.08
2013-12-7,33,30,28,32,29,27,97,96,93,30.58,30.30,8,2,11,0.00
2013-12-8,44,34,29,43,34,28,99,97,95,30.52,30.15,3,0,6,0.43
2013-12-9,48,43,36,46,42,35,99,96,89,30.23,30.11,5,1,12,0.30
2013-12-10,36,29,20,35,26,18,96,90,74,30.45,30.09,8,1,12,0.01
2013-12-11,44,28,14,29,20,13,96,75,41,30.55,30.41,8,1,15,0.16
2013-12-12,32,25,18,22,15,9,87,66,41,30.59,30.47,7,1,9,0.00
2013-12-13,46,28,13,27,18,12,94,70,33,30.50,30.31,9,1,10,0.02
2013-12-14,47,39,33,44,35,23,97,85,65,30.31,29.82,9,1,16,0.19
2013-12-15,42,32,26,41,29,23,95,89,84,30.21,29.84,8,1,13,0.01
2013-12-16,45,33,26,33,28,24,94,84,62,30.29,30.15,8,1,14,0.01
2013-12-17,51,36,28,38,31,24,97,83,54,30.26,30.02,9,2,13,0.11
2013-12-18,43,32,22,25,20,14,91,64,32,30.36,30.26,7,1,13,0.00
2013-12-19,59,40,24,30,23,19,84,55,25,30.37,30.20,6,1,10,0.00
2013-12-20,60,49,36,48,36,25,76,62,41,30.22,30.09,21,3,28,0.00
2013-12-21,69,62,51,59,53,46,82,74,64,30.09,29.80,13,3,20,0.00
2013-12-22,69,58,54,61,54,51,97,89,71,30.04,29.80,8,2,20,1.20
2013-12-23,55,40,30,53,38,25,97,90,80,30.38,30.02,6,1,11,0.11
2013-12-24,30,25,14,25,18,11,85,75,60,30.58,30.36,8,1,14,0.00
2013-12-25,42,25,11,21,15,10,93,71,36,30.57,30.39,5,1,12,0.00
2013-12-26,42,32,22,28,23,17,87,71,43,30.49,30.38,6,1,13,0.00
2013-12-27,51,31,19,25,20,17,95,70,30,30.58,30.47,6,0,10,0.00
2013-12-28,46,32,20,35,26,18,96,79,49,30.50,30.18,3,0,5,0.21
2013-12-29,43,40,36,42,38,35,98,95,89,30.18,29.88,5,1,16,1.15
2013-12-30,39,33,30,38,31,27,96,91,82,30.28,30.06,5,1,12,0.01
2013-12-31,38,29,23,28,23,20,96,80,55,30.49,30.26,8,1,15,0.00
2014-1-1,52,30,19,29,20,15,95,72,24,30.45,30.17,7,1,15,0.01
2014-1-2,40,29,14,39,27,11,97,89,73,30.17,29.77,8,1,18,0.15